Location: *
(49.4547°N, 7.9131°E)
Time: 01:42:22
(UTC+00:00)

Cosmos 1023 Rocket - Pass Details

Date: 22 September 2019
Orbit: 737 x 772 km, 74.1° (Epoch: 18 October)

Event Time Altitude Azimuth Distance (km) Brightness Sun altitude
Rises 18:21:58 0° 338° (NNW) 3,216 8.2 -9.7°
Reaches altitude 10° 18:24:23 10° 341° (NNW) 2,282 7.4 -10.0°
Maximum altitude 18:29:31 64° 63° (ENE) 828 4.5 -10.9°
Drops below altitude 10° 18:34:34 10° 145° (SE) 2,247 6.5 -11.7°
Enters shadow 18:35:12 - 147° (SSE) 2,490 6.7 -11.8°
